TDRS 12

Last updated on Thu Jul 03 2025 00:02:38 GMT+0000 (Coordinated Universal Time)

1 39504U 14004A 25183.58746634 -.00000264 00000+0 00000+0 0 9993 2 39504 3.6863 12.3290 0004284 187.8178 251.3131 1.00269101 40778
UTC large
Height (km)
Speed (km/s)
/
Latitude / Longitude
Inclination (degrees)
Orbital Period (minutes)
Azimuth
Elevation
Range (km)
Doppler Factor

Next 0 passes for location: London (51.5072 / 0.1276)

Sorry there are no passes over London.